User: anonymous   Login
Location: Unspecified
(0.0000°N, 0.0000°E)
Time: 07:33:33
(UTC+00:00)
Language:

ATS 6 - Orbit

View from above orbital plane
View from above orbital plane
View from above satellite
View from above satellite

Ground track
Ground track

The orbit data is extracted from the following two-line orbital elements,

1 07318U 74039A   24104.77870385 -.00000037  00000-0  00000-0 0  9999
2 07318   3.9299 269.7477 0026492 308.5393 110.5152  1.01978088113900
Epoch (UTC): 13 April 2024 18:41:20
Eccentricity: 0.0026492
inclination: 3.9299°
perigee height: 35204 km
apogee height: 35425 km
right ascension of ascending node: 269.7477°
argument of perigee: 308.5393°
revolutions per day: 1.01978088
mean anomaly at epoch: 110.5152°
orbit number at epoch: 11390

The dashed part of the orbit path shows where the satellite is in the earth's shadow,  

DLR